RANGR61 KNUC-KBAB

Flight info

Callsign RANGR61
Flight time 2h 37m
Altitude 28000
Route RZS J501 BSR SNS227018 IR207 LLC110019 FMG
Aircraft C130/M-SDE2E3FGRY/H

Departure

Time 2026-04-17 19:17
Airport San Clemente Island Naval Auxiliary Landing Field (KNUC)

Arrival

Time 2026-04-17 21:55
Airport Beale Air Force Base (KBAB)
Time Latitude Longitude Altitude Speed Heading
2026-04-17 19:04 33.02028 -118.58557 118 ft 0 kts 161°
2026-04-17 19:11 33.02034 -118.58559 118 ft 0 kts 159°
2026-04-17 19:11 33.02033 -118.58559 118 ft 0 kts 160°
2026-04-17 19:11 33.02028 -118.58555 118 ft 1 kts 148°
2026-04-17 19:12 33.02018 -118.58543 114 ft 4 kts 136°
2026-04-17 19:12 33.02001 -118.58498 116 ft 8 kts 82°
2026-04-17 19:12 33.02024 -118.58446 117 ft 6 kts 39°
2026-04-17 19:12 33.02064 -118.58451 116 ft 7 kts 340°
2026-04-17 19:13 33.02118 -118.58477 117 ft 10 kts 338°
2026-04-17 19:13 33.02186 -118.58510 117 ft 11 kts 337°
2026-04-17 19:13 33.02220 -118.58577 117 ft 12 kts 251°
2026-04-17 19:13 33.02187 -118.58674 116 ft 14 kts 247°
2026-04-17 19:14 33.02144 -118.58794 117 ft 17 kts 248°
2026-04-17 19:14 33.02095 -118.58935 116 ft 20 kts 248°
2026-04-17 19:14 33.02043 -118.59090 118 ft 21 kts 248°
2026-04-17 19:14 33.01983 -118.59258 115 ft 22 kts 248°
2026-04-17 19:15 33.01920 -118.59432 115 ft 23 kts 246°
2026-04-17 19:15 33.01858 -118.59611 119 ft 24 kts 247°
2026-04-17 19:15 33.01793 -118.59794 116 ft 24 kts 247°
2026-04-17 19:15 33.01728 -118.59977 119 ft 22 kts 248°
2026-04-17 19:16 33.01693 -118.60125 119 ft 16 kts 274°
2026-04-17 19:16 33.01748 -118.60198 115 ft 10 kts 333°
2026-04-17 19:16 33.01794 -118.60202 120 ft 5 kts 45°
2026-04-17 19:16 33.01824 -118.60123 121 ft 28 kts 68°
2026-04-17 19:17 33.02006 -118.59588 123 ft 107 kts 71°
2026-04-17 19:17 33.02312 -118.58640 373 ft 136 kts 70°
2026-04-17 19:17 33.02709 -118.57513 748 ft 158 kts 69°
2026-04-17 19:17 33.03155 -118.56208 1108 ft 182 kts 70°
2026-04-17 19:18 33.03624 -118.54784 1769 ft 184 kts 68°
2026-04-17 19:18 33.04139 -118.53415 2606 ft 178 kts 66°
2026-04-17 19:18 33.04812 -118.52211 3357 ft 178 kts 39°
2026-04-17 19:18 33.06018 -118.51844 3991 ft 191 kts 354°
2026-04-17 19:19 33.07225 -118.52563 4621 ft 199 kts 329°
2026-04-17 19:19 33.08401 -118.53451 5295 ft 200 kts 330°
2026-04-17 19:19 33.09585 -118.54324 6019 ft 199 kts 330°
2026-04-17 19:19 33.10751 -118.55213 6718 ft 199 kts 328°
2026-04-17 19:20 33.11903 -118.56124 7417 ft 198 kts 327°
2026-04-17 19:20 33.13041 -118.57048 8107 ft 198 kts 326°
2026-04-17 19:20 33.14172 -118.57983 8786 ft 197 kts 326°
2026-04-17 19:20 33.15292 -118.58919 9473 ft 196 kts 325°
2026-04-17 19:21 33.16403 -118.59856 10115 ft 196 kts 324°
2026-04-17 19:21 33.17510 -118.60793 10645 ft 198 kts 324°
2026-04-17 19:21 33.18641 -118.61754 11178 ft 201 kts 324°
2026-04-17 19:21 33.19795 -118.62738 11711 ft 203 kts 324°
2026-04-17 19:22 33.20947 -118.63722 12236 ft 205 kts 324°
2026-04-17 19:22 33.22097 -118.64705 12748 ft 206 kts 324°
2026-04-17 19:22 33.23267 -118.65707 13254 ft 208 kts 324°
2026-04-17 19:22 33.24450 -118.66719 13740 ft 211 kts 323°
2026-04-17 19:23 33.25652 -118.67749 14208 ft 213 kts 323°
2026-04-17 19:23 33.28063 -118.69817 15092 ft 215 kts 323°
2026-04-17 19:23 33.29282 -118.70863 15533 ft 216 kts 323°
2026-04-17 19:24 33.30507 -118.71915 15953 ft 217 kts 323°
2026-04-17 19:24 33.31742 -118.72975 16374 ft 219 kts 323°
2026-04-17 19:24 33.32969 -118.74029 16784 ft 220 kts 323°
2026-04-17 19:24 33.34232 -118.75114 17198 ft 221 kts 323°
2026-04-17 19:25 33.35470 -118.76178 17597 ft 223 kts 323°
2026-04-17 19:25 33.36733 -118.77264 17996 ft 224 kts 323°
2026-04-17 19:25 33.38002 -118.78356 18381 ft 225 kts 323°
2026-04-17 19:25 33.39282 -118.79456 18711 ft 227 kts 323°
2026-04-17 19:26 33.40564 -118.80560 19034 ft 228 kts 323°
2026-04-17 19:26 33.41853 -118.81670 19355 ft 229 kts 323°
2026-04-17 19:26 33.43151 -118.82787 19681 ft 230 kts 323°
2026-04-17 19:26 33.44452 -118.83908 19989 ft 231 kts 323°
2026-04-17 19:27 33.45758 -118.85034 20295 ft 232 kts 323°
2026-04-17 19:27 33.47074 -118.86168 20596 ft 233 kts 323°
2026-04-17 19:27 33.48371 -118.87287 20885 ft 234 kts 323°
2026-04-17 19:27 33.49697 -118.88430 21175 ft 235 kts 323°
2026-04-17 19:28 33.51026 -118.89577 21469 ft 236 kts 323°
2026-04-17 19:28 33.52361 -118.90729 21751 ft 237 kts 323°
2026-04-17 19:28 33.53704 -118.91889 22023 ft 238 kts 323°
2026-04-17 19:28 33.55053 -118.93055 22290 ft 239 kts 322°
2026-04-17 19:29 33.56402 -118.94220 22552 ft 240 kts 322°
2026-04-17 19:29 33.57761 -118.95395 22810 ft 241 kts 322°
2026-04-17 19:29 33.59124 -118.96574 23031 ft 243 kts 322°
2026-04-17 19:29 33.60496 -118.97761 23284 ft 244 kts 322°
2026-04-17 19:30 33.61874 -118.98953 23526 ft 244 kts 322°
2026-04-17 19:30 33.63251 -119.00146 23743 ft 245 kts 322°
2026-04-17 19:30 33.64638 -119.01347 23937 ft 246 kts 322°
2026-04-17 19:30 33.66025 -119.02549 24119 ft 246 kts 322°
2026-04-17 19:31 33.67417 -119.03755 24315 ft 247 kts 322°
2026-04-17 19:31 33.68814 -119.04967 24488 ft 248 kts 322°
2026-04-17 19:31 33.70214 -119.06182 24666 ft 249 kts 322°
2026-04-17 19:31 33.71619 -119.07400 24843 ft 249 kts 322°
2026-04-17 19:32 33.73026 -119.08622 25013 ft 250 kts 322°
2026-04-17 19:32 33.74419 -119.09832 25185 ft 251 kts 322°
2026-04-17 19:32 33.75837 -119.11064 25344 ft 251 kts 322°
2026-04-17 19:32 33.77255 -119.12297 25511 ft 252 kts 322°
2026-04-17 19:33 33.78676 -119.13533 25666 ft 252 kts 322°
2026-04-17 19:33 33.80101 -119.14773 25823 ft 253 kts 322°
2026-04-17 19:33 33.81529 -119.16015 25980 ft 254 kts 322°
2026-04-17 19:33 33.82960 -119.17262 26123 ft 254 kts 322°
2026-04-17 19:34 33.84398 -119.18514 26279 ft 255 kts 322°
2026-04-17 19:34 33.85835 -119.19766 26420 ft 255 kts 322°
2026-04-17 19:34 33.87276 -119.21022 26558 ft 256 kts 322°
2026-04-17 19:34 33.88716 -119.22278 26696 ft 257 kts 322°
2026-04-17 19:35 33.90162 -119.23540 26811 ft 257 kts 322°
2026-04-17 19:35 33.91614 -119.24807 26956 ft 258 kts 322°
2026-04-17 19:35 33.93068 -119.26077 27055 ft 259 kts 322°
2026-04-17 19:35 33.94527 -119.27352 27165 ft 259 kts 322°
2026-04-17 19:36 33.95985 -119.28627 27299 ft 260 kts 322°
2026-04-17 19:36 33.97449 -119.29907 27416 ft 260 kts 322°
2026-04-17 19:36 33.98915 -119.31189 27526 ft 261 kts 322°
2026-04-17 19:36 34.00383 -119.32474 27662 ft 261 kts 323°
2026-04-17 19:37 34.01836 -119.33746 27753 ft 261 kts 323°
2026-04-17 19:37 34.03306 -119.35033 27858 ft 262 kts 323°
2026-04-17 19:37 34.04781 -119.36326 27961 ft 262 kts 323°
2026-04-17 19:37 34.06261 -119.37623 28063 ft 263 kts 323°
2026-04-17 19:38 34.07746 -119.38926 28092 ft 266 kts 323°
2026-04-17 19:38 34.09250 -119.40246 28097 ft 269 kts 323°
2026-04-17 19:38 34.10770 -119.41580 28093 ft 272 kts 323°
2026-04-17 19:38 34.12315 -119.42937 28092 ft 276 kts 323°
2026-04-17 19:39 34.13869 -119.44303 28092 ft 278 kts 323°
2026-04-17 19:39 34.15441 -119.45685 28090 ft 281 kts 323°
2026-04-17 19:39 34.17030 -119.47082 28089 ft 283 kts 323°
2026-04-17 19:39 34.18623 -119.48484 28091 ft 285 kts 323°
2026-04-17 19:40 34.20235 -119.49903 28089 ft 287 kts 323°
2026-04-17 19:40 34.21853 -119.51327 28087 ft 289 kts 323°
2026-04-17 19:40 34.23479 -119.52761 28085 ft 290 kts 323°
2026-04-17 19:40 34.25113 -119.54201 28083 ft 291 kts 323°
2026-04-17 19:41 34.26759 -119.55652 28081 ft 293 kts 323°
2026-04-17 19:41 34.28406 -119.57106 28087 ft 294 kts 323°
2026-04-17 19:41 34.30060 -119.58566 28084 ft 295 kts 323°
2026-04-17 19:41 34.31719 -119.60031 28088 ft 296 kts 323°
2026-04-17 19:42 34.33360 -119.61482 28089 ft 297 kts 323°
2026-04-17 19:42 34.35028 -119.62957 28088 ft 297 kts 323°
2026-04-17 19:42 34.36700 -119.64436 28090 ft 298 kts 323°
2026-04-17 19:42 34.38374 -119.65918 28091 ft 298 kts 323°
2026-04-17 19:43 34.40052 -119.67404 28092 ft 299 kts 323°
2026-04-17 19:43 34.41732 -119.68893 28094 ft 300 kts 323°
2026-04-17 19:43 34.43416 -119.70385 28096 ft 300 kts 323°
2026-04-17 19:44 34.46813 -119.73399 28074 ft 301 kts 323°
2026-04-17 19:44 34.50173 -119.76386 28072 ft 302 kts 322°
2026-04-17 19:45 34.53334 -119.79737 28079 ft 302 kts 317°
2026-04-17 19:45 34.56466 -119.83149 28068 ft 303 kts 317°
2026-04-17 19:46 34.59606 -119.86566 28076 ft 303 kts 317°
2026-04-17 19:46 34.62750 -119.89990 28074 ft 304 kts 317°
2026-04-17 19:47 34.65893 -119.93418 28078 ft 304 kts 317°
2026-04-17 19:47 34.69034 -119.96846 28077 ft 304 kts 317°
2026-04-17 19:48 34.72180 -120.00284 28097 ft 304 kts 317°
2026-04-17 19:48 34.75327 -120.03727 28085 ft 304 kts 318°
2026-04-17 19:49 34.75840 -120.04289 28067 ft 304 kts 318°
2026-04-17 19:49 34.78559 -120.07268 28086 ft 304 kts 317°
2026-04-17 19:50 34.81681 -120.10692 28080 ft 304 kts 317°
2026-04-17 19:50 34.84824 -120.14142 28080 ft 304 kts 317°
2026-04-17 19:51 34.87962 -120.17592 28096 ft 304 kts 317°
2026-04-17 19:51 34.91109 -120.21055 28096 ft 305 kts 317°
2026-04-17 19:52 34.94262 -120.24529 28101 ft 306 kts 317°
2026-04-17 19:52 34.97424 -120.28017 28099 ft 307 kts 317°
2026-04-17 19:53 35.00590 -120.31513 28098 ft 307 kts 317°
2026-04-17 19:53 35.03755 -120.35013 28099 ft 307 kts 317°
2026-04-17 19:54 35.06918 -120.38514 28102 ft 307 kts 317°
2026-04-17 19:54 35.09549 -120.41428 28091 ft 307 kts 317°
2026-04-17 19:55 35.13220 -120.45501 28089 ft 307 kts 317°
2026-04-17 19:55 35.16380 -120.49011 28085 ft 307 kts 317°
2026-04-17 19:56 35.19537 -120.52521 28084 ft 307 kts 317°
2026-04-17 19:56 35.22167 -120.55449 28082 ft 307 kts 317°
2026-04-17 19:57 35.25330 -120.58973 28086 ft 307 kts 318°
2026-04-17 19:57 35.28486 -120.62493 28085 ft 307 kts 318°
2026-04-17 19:58 35.31639 -120.66016 28085 ft 306 kts 317°
2026-04-17 19:58 35.34773 -120.69560 28084 ft 306 kts 318°
2026-04-17 19:59 35.37909 -120.73081 28088 ft 306 kts 318°
2026-04-17 19:59 35.41052 -120.76602 28087 ft 306 kts 318°
2026-04-17 20:00 35.44202 -120.80133 28085 ft 307 kts 318°
2026-04-17 20:00 35.47349 -120.83664 28117 ft 306 kts 318°
2026-04-17 20:01 35.50470 -120.87178 28111 ft 307 kts 318°
2026-04-17 20:01 35.53615 -120.90716 28111 ft 307 kts 318°
2026-04-17 20:02 35.56763 -120.94260 28101 ft 307 kts 318°
2026-04-17 20:02 35.59910 -120.97807 28094 ft 307 kts 318°
2026-04-17 20:03 35.63056 -121.01357 28096 ft 307 kts 318°
2026-04-17 20:03 35.66202 -121.04910 28098 ft 307 kts 318°
2026-04-17 20:04 35.69339 -121.08460 28107 ft 307 kts 318°
2026-04-17 20:04 35.72481 -121.12017 28112 ft 307 kts 318°
2026-04-17 20:05 35.75625 -121.15581 28103 ft 307 kts 318°
2026-04-17 20:05 35.78749 -121.19127 28105 ft 308 kts 318°
2026-04-17 20:06 35.81895 -121.22703 28110 ft 308 kts 318°
2026-04-17 20:06 35.85038 -121.26279 28110 ft 308 kts 318°
2026-04-17 20:07 35.88180 -121.29858 28110 ft 307 kts 318°
2026-04-17 20:07 35.91320 -121.33439 28113 ft 307 kts 318°
2026-04-17 20:08 35.94458 -121.37022 28118 ft 307 kts 318°
2026-04-17 20:08 35.97594 -121.40607 28114 ft 307 kts 318°
2026-04-17 20:09 36.00726 -121.44192 28121 ft 307 kts 318°
2026-04-17 20:09 36.03857 -121.47779 28119 ft 307 kts 318°
2026-04-17 20:10 36.06990 -121.51373 27931 ft 312 kts 318°
2026-04-17 20:10 36.08584 -121.53203 27398 ft 310 kts 318°
2026-04-17 20:10 36.10128 -121.54978 26898 ft 304 kts 318°
2026-04-17 20:10 36.11667 -121.56747 26405 ft 300 kts 318°
2026-04-17 20:11 36.13189 -121.58497 25898 ft 298 kts 318°
2026-04-17 20:11 36.14704 -121.60241 25416 ft 296 kts 318°
2026-04-17 20:11 36.16207 -121.61971 24953 ft 294 kts 318°
2026-04-17 20:11 36.17728 -121.63684 24517 ft 302 kts 321°
2026-04-17 20:12 36.19450 -121.65289 24131 ft 317 kts 325°
2026-04-17 20:12 36.21282 -121.66887 23764 ft 324 kts 325°
2026-04-17 20:12 36.23115 -121.68472 23348 ft 318 kts 326°
2026-04-17 20:12 36.24922 -121.70023 22929 ft 316 kts 326°
2026-04-17 20:13 36.26730 -121.71571 22508 ft 315 kts 326°
2026-04-17 20:13 36.28524 -121.73105 22102 ft 312 kts 326°
2026-04-17 20:13 36.30305 -121.74627 21734 ft 311 kts 326°
2026-04-17 20:13 36.32080 -121.76143 21346 ft 309 kts 326°
2026-04-17 20:14 36.33848 -121.77655 20890 ft 306 kts 326°
2026-04-17 20:14 36.35596 -121.79150 20440 ft 305 kts 325°
2026-04-17 20:14 36.37336 -121.80639 19982 ft 303 kts 325°
2026-04-17 20:14 36.39062 -121.82117 19563 ft 300 kts 325°
2026-04-17 20:15 36.40758 -121.83570 19169 ft 299 kts 325°
2026-04-17 20:15 36.42462 -121.85031 18759 ft 297 kts 325°
2026-04-17 20:15 36.44160 -121.86487 18368 ft 296 kts 325°
2026-04-17 20:15 36.45845 -121.87933 17917 ft 294 kts 325°
2026-04-17 20:16 36.47522 -121.89373 17477 ft 292 kts 325°
2026-04-17 20:16 36.49179 -121.90816 17032 ft 290 kts 322°
2026-04-17 20:16 36.50715 -121.92483 16625 ft 302 kts 315°
2026-04-17 20:16 36.52188 -121.94458 16265 ft 320 kts 312°
2026-04-17 20:17 36.53676 -121.96568 15938 ft 327 kts 311°
2026-04-17 20:17 36.55154 -121.98686 15590 ft 321 kts 311°
2026-04-17 20:17 36.56612 -122.00789 15245 ft 321 kts 311°
2026-04-17 20:17 36.58059 -122.02885 15079 ft 318 kts 311°
2026-04-17 20:18 36.59502 -122.04979 15052 ft 318 kts 311°
2026-04-17 20:18 36.60945 -122.07077 15046 ft 320 kts 311°
2026-04-17 20:18 36.62393 -122.09185 15041 ft 321 kts 311°
2026-04-17 20:18 36.63840 -122.11293 15041 ft 320 kts 311°
2026-04-17 20:19 36.65285 -122.13399 15047 ft 319 kts 311°
2026-04-17 20:19 36.66730 -122.15508 15042 ft 320 kts 311°
2026-04-17 20:19 36.68177 -122.17621 15041 ft 321 kts 311°
2026-04-17 20:19 36.69626 -122.19738 15041 ft 320 kts 311°
2026-04-17 20:20 36.71069 -122.21848 15043 ft 319 kts 311°
2026-04-17 20:20 36.72512 -122.23959 15044 ft 321 kts 311°
2026-04-17 20:20 36.73959 -122.26076 15036 ft 321 kts 311°
2026-04-17 20:20 36.75405 -122.28195 15041 ft 320 kts 311°
2026-04-17 20:21 36.76923 -122.30224 14905 ft 322 kts 318°
2026-04-17 20:21 36.78687 -122.31921 14398 ft 316 kts 327°
2026-04-17 20:21 36.80571 -122.33332 13933 ft 315 kts 330°
2026-04-17 20:21 36.82463 -122.34663 13425 ft 311 kts 330°
2026-04-17 20:22 36.84347 -122.35958 12927 ft 310 kts 331°
2026-04-17 20:22 36.86220 -122.37227 12440 ft 303 kts 331°
2026-04-17 20:22 36.88073 -122.38475 11964 ft 303 kts 331°
2026-04-17 20:22 36.89930 -122.39721 11501 ft 301 kts 331°
2026-04-17 20:23 36.91758 -122.40945 11049 ft 297 kts 331°
2026-04-17 20:23 36.93583 -122.42167 10605 ft 298 kts 331°
2026-04-17 20:23 36.95368 -122.43361 10166 ft 292 kts 331°
2026-04-17 20:23 36.97158 -122.44561 9687 ft 293 kts 331°
2026-04-17 20:24 36.98898 -122.45889 9215 ft 290 kts 326°
2026-04-17 20:24 37.00559 -122.47281 8757 ft 287 kts 326°
2026-04-17 20:24 37.02221 -122.48677 8314 ft 289 kts 326°
2026-04-17 20:24 37.03877 -122.50069 7871 ft 285 kts 327°
2026-04-17 20:25 37.05507 -122.51440 7440 ft 284 kts 327°
2026-04-17 20:25 37.07144 -122.52818 7014 ft 283 kts 327°
2026-04-17 20:25 37.08767 -122.54186 6597 ft 280 kts 327°
2026-04-17 20:25 37.10372 -122.55539 6153 ft 278 kts 327°
2026-04-17 20:26 37.11971 -122.56890 5721 ft 276 kts 327°
2026-04-17 20:26 37.13429 -122.58419 5284 ft 274 kts 317°
2026-04-17 20:26 37.14701 -122.60185 4860 ft 273 kts 313°
2026-04-17 20:26 37.15864 -122.62069 4408 ft 273 kts 308°
2026-04-17 20:27 37.16943 -122.63991 3987 ft 267 kts 307°
2026-04-17 20:27 37.18023 -122.65870 3570 ft 266 kts 308°
2026-04-17 20:27 37.19087 -122.67749 3149 ft 263 kts 303°
2026-04-17 20:27 37.19937 -122.69790 3031 ft 265 kts 298°
2026-04-17 20:28 37.20739 -122.71877 3015 ft 266 kts 297°
2026-04-17 20:28 37.21550 -122.73974 3026 ft 267 kts 298°
2026-04-17 20:28 37.22353 -122.76073 3024 ft 267 kts 297°
2026-04-17 20:28 37.23159 -122.78179 3023 ft 267 kts 298°
2026-04-17 20:29 37.23964 -122.80284 3024 ft 268 kts 297°
2026-04-17 20:29 37.24778 -122.82395 3024 ft 267 kts 298°
2026-04-17 20:29 37.25830 -122.84276 3031 ft 265 kts 322°
2026-04-17 20:29 37.27425 -122.85380 3028 ft 261 kts 338°
2026-04-17 20:30 37.30874 -122.86856 3029 ft 264 kts 342°
2026-04-17 20:30 37.32605 -122.87623 3020 ft 264 kts 341°
2026-04-17 20:30 37.34319 -122.88374 3011 ft 265 kts 342°
2026-04-17 20:31 37.36109 -122.88991 3021 ft 264 kts 347°
2026-04-17 20:31 37.37869 -122.89492 3026 ft 262 kts 347°
2026-04-17 20:31 37.39663 -122.90047 3032 ft 262 kts 344°
2026-04-17 20:31 37.41404 -122.90653 3027 ft 263 kts 345°
2026-04-17 20:32 37.43170 -122.91219 3027 ft 261 kts 346°
2026-04-17 20:32 37.44940 -122.91783 3024 ft 264 kts 346°
2026-04-17 20:32 37.46714 -122.92335 3028 ft 261 kts 347°
2026-04-17 20:32 37.48500 -122.92827 3030 ft 265 kts 348°
2026-04-17 20:33 37.50306 -122.93326 3021 ft 265 kts 348°
2026-04-17 20:33 37.52105 -122.93824 3028 ft 266 kts 348°
2026-04-17 20:33 37.53910 -122.94322 3026 ft 265 kts 348°
2026-04-17 20:33 37.55707 -122.94821 3028 ft 266 kts 348°
2026-04-17 20:34 37.57517 -122.95323 3020 ft 265 kts 348°
2026-04-17 20:34 37.59308 -122.95817 3023 ft 265 kts 348°
2026-04-17 20:34 37.61119 -122.96316 3024 ft 265 kts 348°
2026-04-17 20:34 37.62914 -122.96813 3016 ft 264 kts 348°
2026-04-17 20:35 37.64714 -122.97310 3009 ft 266 kts 348°
2026-04-17 20:35 37.66519 -122.97811 3018 ft 265 kts 348°
2026-04-17 20:35 37.68333 -122.98315 3017 ft 268 kts 348°
2026-04-17 20:35 37.70151 -122.98782 3009 ft 266 kts 355°
2026-04-17 20:36 37.71994 -122.98568 3018 ft 268 kts 11°
2026-04-17 20:36 37.73808 -122.98066 3009 ft 266 kts 13°
2026-04-17 20:36 37.75621 -122.97535 3018 ft 268 kts 13°
2026-04-17 20:36 37.77433 -122.97006 3018 ft 267 kts 13°
2026-04-17 20:37 37.79248 -122.96476 3020 ft 268 kts 13°
2026-04-17 20:37 37.81045 -122.95886 3022 ft 267 kts 17°
2026-04-17 20:37 37.82815 -122.95167 3011 ft 267 kts 18°
2026-04-17 20:37 37.84593 -122.94486 3007 ft 268 kts
2026-04-17 20:38 37.86420 -122.94704 3009 ft 267 kts 338°
2026-04-17 20:38 37.87897 -122.96092 3031 ft 268 kts 313°
2026-04-17 20:38 37.89018 -122.97986 3003 ft 270 kts 305°
2026-04-17 20:38 37.90066 -122.99942 3006 ft 268 kts 305°
2026-04-17 20:39 37.91121 -123.01888 3009 ft 268 kts 306°
2026-04-17 20:39 37.92215 -123.03793 3014 ft 268 kts 308°
2026-04-17 20:39 37.93386 -123.05626 3021 ft 268 kts 311°
2026-04-17 20:39 37.94605 -123.07409 3013 ft 268 kts 311°
2026-04-17 20:40 37.95819 -123.09177 3008 ft 267 kts 312°
2026-04-17 20:40 37.97042 -123.10959 3014 ft 267 kts 312°
2026-04-17 20:40 37.98260 -123.12740 3024 ft 269 kts 311°
2026-04-17 20:40 37.99482 -123.14523 3015 ft 268 kts 311°
2026-04-17 20:41 38.00716 -123.16310 3011 ft 269 kts 314°
2026-04-17 20:41 38.02264 -123.17574 3026 ft 268 kts 339°
2026-04-17 20:41 38.04041 -123.18301 2913 ft 270 kts 343°
2026-04-17 20:41 38.05822 -123.18990 2944 ft 266 kts 343°
2026-04-17 20:42 38.07657 -123.19300 3088 ft 269 kts
2026-04-17 20:42 38.09529 -123.19156 3243 ft 269 kts
2026-04-17 20:42 38.11379 -123.18996 3632 ft 267 kts
2026-04-17 20:42 38.12608 -123.18883 3887 ft 268 kts
2026-04-17 20:43 38.14435 -123.18410 4288 ft 267 kts 13°
2026-04-17 20:43 38.16239 -123.17805 4670 ft 269 kts 13°
2026-04-17 20:43 38.18054 -123.17192 4954 ft 273 kts 14°
2026-04-17 20:43 38.19890 -123.16579 5014 ft 271 kts 12°
2026-04-17 20:44 38.21731 -123.16031 5024 ft 273 kts 12°
2026-04-17 20:44 38.23578 -123.15496 5015 ft 272 kts 12°
2026-04-17 20:44 38.25443 -123.14991 5008 ft 275 kts 10°
2026-04-17 20:44 38.27322 -123.14594 5010 ft 273 kts
2026-04-17 20:45 38.29204 -123.14219 5010 ft 274 kts
2026-04-17 20:45 38.31077 -123.13845 5008 ft 273 kts
2026-04-17 20:45 38.32963 -123.13471 5004 ft 274 kts
2026-04-17 20:45 38.34837 -123.13097 5006 ft 274 kts
2026-04-17 20:46 38.36716 -123.12723 4999 ft 273 kts
2026-04-17 20:46 38.38601 -123.12348 5002 ft 275 kts
2026-04-17 20:46 38.40477 -123.11976 5002 ft 272 kts
2026-04-17 20:46 38.42361 -123.11601 5002 ft 275 kts
2026-04-17 20:47 38.44240 -123.11227 5004 ft 273 kts
2026-04-17 20:47 38.46034 -123.10442 5005 ft 276 kts 26°
2026-04-17 20:47 38.47678 -123.09279 5357 ft 267 kts 29°
2026-04-17 20:47 38.49324 -123.08156 5805 ft 268 kts 24°
2026-04-17 20:48 38.51010 -123.07143 6256 ft 268 kts 24°
2026-04-17 20:48 38.52705 -123.06134 6706 ft 269 kts 24°
2026-04-17 20:48 38.54404 -123.05113 7123 ft 270 kts 24°
2026-04-17 20:48 38.56108 -123.04091 7588 ft 271 kts 24°
2026-04-17 20:49 38.57825 -123.03060 8034 ft 273 kts 24°
2026-04-17 20:49 38.59546 -123.02020 8491 ft 274 kts 24°
2026-04-17 20:49 38.61272 -123.00981 8903 ft 277 kts 24°
2026-04-17 20:49 38.63054 -122.99910 9010 ft 289 kts 24°
2026-04-17 20:50 38.64900 -122.98804 9013 ft 293 kts 24°
2026-04-17 20:50 38.66744 -122.97696 9005 ft 293 kts 24°
2026-04-17 20:50 38.68580 -122.96583 8992 ft 292 kts 24°
2026-04-17 20:50 38.70418 -122.95467 8993 ft 292 kts 24°
2026-04-17 20:51 38.72254 -122.94351 8983 ft 294 kts 24°
2026-04-17 20:51 38.74070 -122.93253 8984 ft 291 kts 24°
2026-04-17 20:51 38.75917 -122.92139 8984 ft 293 kts 24°
2026-04-17 20:51 38.77750 -122.91033 8986 ft 292 kts 24°
2026-04-17 20:52 38.79591 -122.89923 8977 ft 292 kts 23°
2026-04-17 20:52 38.81425 -122.88808 8972 ft 293 kts 24°
2026-04-17 20:52 38.83278 -122.87694 8993 ft 295 kts 24°
2026-04-17 20:52 38.85129 -122.86583 8977 ft 294 kts 24°
2026-04-17 20:53 38.86985 -122.85471 8985 ft 294 kts 24°
2026-04-17 20:53 38.88842 -122.84360 8985 ft 294 kts 24°
2026-04-17 20:53 38.90704 -122.83249 8979 ft 296 kts 24°
2026-04-17 20:53 38.92570 -122.82134 8971 ft 295 kts 24°
2026-04-17 20:54 38.94432 -122.81022 8986 ft 296 kts 24°
2026-04-17 20:54 38.96299 -122.79907 8978 ft 296 kts 24°
2026-04-17 20:54 38.98165 -122.78793 8991 ft 296 kts 24°
2026-04-17 20:54 39.00035 -122.77675 8976 ft 296 kts 24°
2026-04-17 20:55 39.01907 -122.76576 8970 ft 296 kts 23°
2026-04-17 20:55 39.03776 -122.75494 8982 ft 295 kts 23°
2026-04-17 20:55 39.05581 -122.74229 8986 ft 297 kts 33°
2026-04-17 20:55 39.06976 -122.72280 8978 ft 301 kts 59°
2026-04-17 20:56 39.07957 -122.69899 8979 ft 301 kts 60°
2026-04-17 20:56 39.08964 -122.67543 8981 ft 301 kts 60°
2026-04-17 20:56 39.09975 -122.65181 8973 ft 300 kts 60°
2026-04-17 20:56 39.10982 -122.62829 8988 ft 301 kts 60°
2026-04-17 20:57 39.11987 -122.60470 8978 ft 301 kts 59°
2026-04-17 20:57 39.12985 -122.58084 8978 ft 302 kts 60°
2026-04-17 20:57 39.13976 -122.55705 8980 ft 301 kts 60°
2026-04-17 20:57 39.14963 -122.53337 8981 ft 302 kts 59°
2026-04-17 20:58 39.15954 -122.50959 8987 ft 301 kts 59°
2026-04-17 20:58 39.16947 -122.48577 8981 ft 302 kts 59°
2026-04-17 20:58 39.17940 -122.46196 8984 ft 301 kts 60°
2026-04-17 20:58 39.18932 -122.43814 8991 ft 301 kts 59°
2026-04-17 20:59 39.19921 -122.41438 8983 ft 301 kts 60°
2026-04-17 20:59 39.20924 -122.39066 8983 ft 301 kts 58°
2026-04-17 20:59 39.21973 -122.36721 8480 ft 298 kts 58°
2026-04-17 20:59 39.22991 -122.34448 8001 ft 294 kts 58°
2026-04-17 21:00 39.24011 -122.32180 7504 ft 291 kts 58°
2026-04-17 21:00 39.25031 -122.29901 7016 ft 288 kts 58°
2026-04-17 21:00 39.26027 -122.27669 6538 ft 287 kts 57°
2026-04-17 21:00 39.27078 -122.25535 6100 ft 282 kts 54°
2026-04-17 21:01 39.28170 -122.23434 5990 ft 282 kts 53°
2026-04-17 21:01 39.29275 -122.21339 5990 ft 283 kts 52°
2026-04-17 21:01 39.30468 -122.19323 5975 ft 282 kts 49°
2026-04-17 21:01 39.31670 -122.17323 5994 ft 282 kts 50°
2026-04-17 21:02 39.32879 -122.15322 5994 ft 282 kts 49°
2026-04-17 21:02 39.34081 -122.13323 5992 ft 282 kts 50°
2026-04-17 21:02 39.35290 -122.11328 5992 ft 281 kts 49°
2026-04-17 21:02 39.36490 -122.09332 5984 ft 282 kts 50°
2026-04-17 21:03 39.37700 -122.07331 5998 ft 282 kts 50°
2026-04-17 21:03 39.38897 -122.05335 5988 ft 280 kts 52°
2026-04-17 21:03 39.40100 -122.03362 5992 ft 279 kts 52°
2026-04-17 21:03 39.41311 -122.01380 5990 ft 281 kts 52°
2026-04-17 21:04 39.42517 -121.99408 5987 ft 279 kts 52°
2026-04-17 21:04 39.43730 -121.97423 5987 ft 282 kts 52°
2026-04-17 21:04 39.44930 -121.95437 5989 ft 279 kts 53°
2026-04-17 21:04 39.46088 -121.93413 5992 ft 281 kts 54°
2026-04-17 21:05 39.47241 -121.91380 5981 ft 280 kts 54°
2026-04-17 21:05 39.48397 -121.89344 5987 ft 281 kts 53°
2026-04-17 21:05 39.49549 -121.87312 5990 ft 280 kts 53°
2026-04-17 21:05 39.50692 -121.85298 5985 ft 280 kts 53°
2026-04-17 21:06 39.51845 -121.83265 5998 ft 281 kts 53°
2026-04-17 21:06 39.53001 -121.81225 5987 ft 280 kts 54°
2026-04-17 21:06 39.54153 -121.79199 5988 ft 279 kts 54°
2026-04-17 21:06 39.55326 -121.77197 5983 ft 279 kts 54°
2026-04-17 21:07 39.56471 -121.75176 5984 ft 278 kts 57°
2026-04-17 21:07 39.57539 -121.73081 5995 ft 278 kts 59°
2026-04-17 21:07 39.58582 -121.70983 5991 ft 277 kts 59°
2026-04-17 21:07 39.59626 -121.68876 5986 ft 277 kts 59°
2026-04-17 21:08 39.60671 -121.66779 5991 ft 278 kts 59°
2026-04-17 21:08 39.61722 -121.64666 5990 ft 277 kts 59°
2026-04-17 21:08 39.62765 -121.62571 5989 ft 277 kts 59°
2026-04-17 21:08 39.63812 -121.60461 5985 ft 278 kts 59°
2026-04-17 21:09 39.64858 -121.58360 5993 ft 278 kts 58°
2026-04-17 21:09 39.65908 -121.56246 5998 ft 279 kts 59°
2026-04-17 21:09 39.66960 -121.54139 5993 ft 278 kts 57°
2026-04-17 21:09 39.68189 -121.52193 5912 ft 279 kts 47°
2026-04-17 21:10 39.69660 -121.50544 5665 ft 281 kts 36°
2026-04-17 21:10 39.71350 -121.49260 5322 ft 282 kts 28°
2026-04-17 21:10 39.73082 -121.48050 4893 ft 282 kts 27°
2026-04-17 21:10 39.74811 -121.46833 4561 ft 283 kts 27°
2026-04-17 21:11 39.76529 -121.45692 4249 ft 279 kts 26°
2026-04-17 21:11 39.78255 -121.44583 3982 ft 275 kts 27°
2026-04-17 21:11 39.79965 -121.43467 3845 ft 274 kts 28°
2026-04-17 21:11 39.81631 -121.42277 3698 ft 274 kts 31°
2026-04-17 21:12 39.83279 -121.41028 3605 ft 273 kts 32°
2026-04-17 21:12 39.84887 -121.39712 3532 ft 274 kts 34°
2026-04-17 21:12 39.86469 -121.38359 3551 ft 271 kts 34°
2026-04-17 21:12 39.88049 -121.36982 3494 ft 273 kts 36°
2026-04-17 21:13 39.89504 -121.35400 3464 ft 273 kts 45°
2026-04-17 21:13 39.90854 -121.33665 3447 ft 272 kts 45°
2026-04-17 21:13 39.92248 -121.32003 3537 ft 273 kts 38°
2026-04-17 21:13 39.93832 -121.30639 3679 ft 273 kts 35°
2026-04-17 21:14 39.95362 -121.29159 3817 ft 275 kts 39°
2026-04-17 21:14 39.96956 -121.27850 3988 ft 273 kts 12°
2026-04-17 21:14 39.98888 -121.27893 3878 ft 276 kts 14°
2026-04-17 21:14 40.00325 -121.26398 3912 ft 270 kts 66°
2026-04-17 21:15 40.00838 -121.24029 3865 ft 271 kts 76°
2026-04-17 21:15 40.01348 -121.21695 3917 ft 263 kts 72°
2026-04-17 21:15 40.02580 -121.20256 4785 ft 249 kts
2026-04-17 21:15 40.04404 -121.20466 4655 ft 276 kts 359°
2026-04-17 21:16 40.06060 -121.19440 4588 ft 277 kts 53°
2026-04-17 21:16 40.07108 -121.17368 4518 ft 270 kts 58°
2026-04-17 21:16 40.08134 -121.15295 4490 ft 275 kts 58°
2026-04-17 21:16 40.09295 -121.13324 4548 ft 272 kts 45°
2026-04-17 21:17 40.10846 -121.11979 4855 ft 273 kts 22°
2026-04-17 21:17 40.12726 -121.11488 5386 ft 273 kts
2026-04-17 21:17 40.14618 -121.11448 5969 ft 272 kts
2026-04-17 21:17 40.16529 -121.11691 6278 ft 285 kts 348°
2026-04-17 21:18 40.18438 -121.12420 5980 ft 292 kts 346°
2026-04-17 21:18 40.20368 -121.13107 5529 ft 285 kts 347°
2026-04-17 21:18 40.22298 -121.13539 5325 ft 282 kts
2026-04-17 21:18 40.24126 -121.12775 5325 ft 278 kts 38°
2026-04-17 21:19 40.25438 -121.10936 5365 ft 278 kts 54°
2026-04-17 21:19 40.26566 -121.08917 5715 ft 273 kts 56°
2026-04-17 21:19 40.27688 -121.06919 6189 ft 276 kts 50°
2026-04-17 21:19 40.29114 -121.05165 5817 ft 282 kts 44°
2026-04-17 21:20 40.30516 -121.03417 5490 ft 277 kts 46°
2026-04-17 21:20 40.31894 -121.01656 5433 ft 278 kts 46°
2026-04-17 21:20 40.33296 -120.99908 5482 ft 277 kts 44°
2026-04-17 21:20 40.34744 -120.98229 5526 ft 278 kts 43°
2026-04-17 21:21 40.36205 -120.96581 5760 ft 279 kts 41°
2026-04-17 21:21 40.37765 -120.95040 5997 ft 281 kts 38°
2026-04-17 21:21 40.39359 -120.93535 6331 ft 283 kts 37°
2026-04-17 21:21 40.41016 -120.92087 6333 ft 286 kts 36°
2026-04-17 21:22 40.42682 -120.90674 6121 ft 284 kts 36°
2026-04-17 21:22 40.44330 -120.89266 5960 ft 281 kts 36°
2026-04-17 21:22 40.45958 -120.87849 5979 ft 281 kts 37°
2026-04-17 21:22 40.47572 -120.86402 6434 ft 281 kts 38°
2026-04-17 21:23 40.49189 -120.84905 6577 ft 287 kts 39°
2026-04-17 21:23 40.50800 -120.83374 6283 ft 284 kts 39°
2026-04-17 21:23 40.52379 -120.81812 5983 ft 282 kts 39°
2026-04-17 21:23 40.53970 -120.80312 5787 ft 283 kts 39°
2026-04-17 21:24 40.55010 -120.78271 5739 ft 274 kts 86°
2026-04-17 21:24 40.54759 -120.75835 6191 ft 262 kts 102°
2026-04-17 21:24 40.54417 -120.73612 7295 ft 242 kts 102°
2026-04-17 21:24 40.54018 -120.71333 7182 ft 270 kts 105°
2026-04-17 21:25 40.53512 -120.68900 6860 ft 271 kts 107°
2026-04-17 21:25 40.53034 -120.66546 6218 ft 268 kts 105°
2026-04-17 21:25 40.52585 -120.64160 5721 ft 271 kts 105°
2026-04-17 21:25 40.52146 -120.61774 5507 ft 267 kts 105°
2026-04-17 21:26 40.51665 -120.59376 5461 ft 273 kts 105°
2026-04-17 21:26 40.51152 -120.56984 5442 ft 266 kts 108°
2026-04-17 21:26 40.50660 -120.54666 5444 ft 272 kts 108°
2026-04-17 21:26 40.49980 -120.52375 5479 ft 265 kts 118°
2026-04-17 21:27 40.48993 -120.50336 5506 ft 265 kts 126°
2026-04-17 21:27 40.47926 -120.48383 5275 ft 265 kts 126°
2026-04-17 21:27 40.46882 -120.46382 4985 ft 265 kts 120°
2026-04-17 21:27 40.45990 -120.44273 4916 ft 262 kts 119°
2026-04-17 21:28 40.45106 -120.42187 4926 ft 261 kts 120°
2026-04-17 21:28 40.44208 -120.40118 5278 ft 260 kts 121°
2026-04-17 21:28 40.43299 -120.38113 5686 ft 253 kts 121°
2026-04-17 21:28 40.42424 -120.36065 5746 ft 265 kts 115°
2026-04-17 21:29 40.41925 -120.34589 5607 ft 267 kts 114°
2026-04-17 21:29 40.41202 -120.32326 5619 ft 268 kts 112°
2026-04-17 21:29 40.40469 -120.30056 5636 ft 270 kts 113°
2026-04-17 21:29 40.39725 -120.27814 5601 ft 268 kts 113°
2026-04-17 21:30 40.39024 -120.25538 5646 ft 272 kts 109°
2026-04-17 21:30 40.38438 -120.23202 5705 ft 267 kts 107°
2026-04-17 21:30 40.37844 -120.20873 5934 ft 269 kts 108°
2026-04-17 21:30 40.37251 -120.18565 6342 ft 266 kts 108°
2026-04-17 21:31 40.36652 -120.16269 6720 ft 265 kts 110°
2026-04-17 21:31 40.36053 -120.13987 7045 ft 266 kts 108°
2026-04-17 21:31 40.35485 -120.11654 7265 ft 272 kts 107°
2026-04-17 21:31 40.34927 -120.09247 7372 ft 277 kts 107°
2026-04-17 21:32 40.34364 -120.06855 7649 ft 274 kts 108°
2026-04-17 21:32 40.33777 -120.04486 8176 ft 273 kts 109°
2026-04-17 21:32 40.33165 -120.02128 8673 ft 273 kts 110°
2026-04-17 21:32 40.32565 -119.99812 9493 ft 258 kts 110°
2026-04-17 21:33 40.32001 -119.97624 10367 ft 252 kts 110°
2026-04-17 21:33 40.31204 -119.95625 11011 ft 247 kts 136°
2026-04-17 21:33 40.29749 -119.94529 11551 ft 243 kts 172°
2026-04-17 21:33 40.28095 -119.94742 11957 ft 246 kts 206°
2026-04-17 21:34 40.26661 -119.96076 12044 ft 263 kts 225°
2026-04-17 21:34 40.25313 -119.97802 12053 ft 281 kts 227°
2026-04-17 21:34 40.22421 -120.01629 12034 ft 307 kts 228°
2026-04-17 21:35 40.20903 -120.03649 12023 ft 313 kts 227°
2026-04-17 21:35 40.19397 -120.05657 12018 ft 313 kts 228°
2026-04-17 21:35 40.17875 -120.07690 12011 ft 313 kts 228°
2026-04-17 21:35 40.16347 -120.09731 12013 ft 313 kts 228°
2026-04-17 21:36 40.14829 -120.11757 12004 ft 311 kts 228°
2026-04-17 21:36 40.13315 -120.13778 12012 ft 312 kts 227°
2026-04-17 21:36 40.11799 -120.15800 12010 ft 309 kts 228°
2026-04-17 21:36 40.10288 -120.17814 12005 ft 313 kts 227°
2026-04-17 21:37 40.08769 -120.19839 12006 ft 311 kts 228°
2026-04-17 21:37 40.07260 -120.21849 12008 ft 310 kts 227°
2026-04-17 21:37 40.05743 -120.23869 11984 ft 310 kts 227°
2026-04-17 21:37 40.04239 -120.25868 11982 ft 307 kts 228°
2026-04-17 21:38 40.02733 -120.27870 11998 ft 311 kts 228°
2026-04-17 21:38 40.01224 -120.29874 11985 ft 307 kts 228°
2026-04-17 21:38 39.99717 -120.31874 11988 ft 311 kts 227°
2026-04-17 21:38 39.98224 -120.33853 11983 ft 308 kts 228°
2026-04-17 21:39 39.96728 -120.35836 11990 ft 308 kts 227°
2026-04-17 21:39 39.95197 -120.37866 11984 ft 309 kts 227°
2026-04-17 21:39 39.93715 -120.39827 11987 ft 308 kts 228°
2026-04-17 21:39 39.92201 -120.41830 11964 ft 311 kts 227°
2026-04-17 21:40 39.90695 -120.43818 11962 ft 306 kts 227°
2026-04-17 21:40 39.89191 -120.45805 11969 ft 311 kts 227°
2026-04-17 21:40 39.87673 -120.47811 11964 ft 308 kts 227°
2026-04-17 21:40 39.86171 -120.49790 11963 ft 309 kts 227°
2026-04-17 21:41 39.84653 -120.51793 11950 ft 310 kts 227°
2026-04-17 21:41 39.83146 -120.53777 11947 ft 308 kts 227°
2026-04-17 21:41 39.81629 -120.55774 11956 ft 311 kts 227°
2026-04-17 21:41 39.80118 -120.57760 11949 ft 306 kts 227°
2026-04-17 21:42 39.78612 -120.59740 11962 ft 310 kts 227°
2026-04-17 21:42 39.77098 -120.61729 11936 ft 308 kts 227°
2026-04-17 21:42 39.75593 -120.63704 11922 ft 309 kts 227°
2026-04-17 21:42 39.74072 -120.65702 11928 ft 311 kts 226°
2026-04-17 21:43 39.72548 -120.67700 11933 ft 311 kts 226°
2026-04-17 21:43 39.71025 -120.69695 11949 ft 312 kts 226°
2026-04-17 21:43 39.69495 -120.71698 11924 ft 311 kts 226°
2026-04-17 21:43 39.67969 -120.73694 11928 ft 312 kts 226°
2026-04-17 21:44 39.66438 -120.75697 11907 ft 311 kts 226°
2026-04-17 21:44 39.64919 -120.77680 11908 ft 311 kts 226°
2026-04-17 21:44 39.63391 -120.79675 11908 ft 311 kts 226°
2026-04-17 21:44 39.61863 -120.81669 11922 ft 312 kts 226°
2026-04-17 21:45 39.60333 -120.83664 11912 ft 311 kts 226°
2026-04-17 21:45 39.58809 -120.85649 11911 ft 311 kts 226°
2026-04-17 21:45 39.57279 -120.87643 11919 ft 312 kts 226°
2026-04-17 21:45 39.55750 -120.89632 11897 ft 310 kts 226°
2026-04-17 21:46 39.54223 -120.91617 11924 ft 312 kts 226°
2026-04-17 21:46 39.52692 -120.93608 11902 ft 311 kts 226°
2026-04-17 21:46 39.51165 -120.95591 11907 ft 312 kts 226°
2026-04-17 21:46 39.49626 -120.97588 11901 ft 313 kts 227°
2026-04-17 21:47 39.48092 -120.99577 11901 ft 312 kts 227°
2026-04-17 21:47 39.46576 -121.01541 11904 ft 313 kts 227°
2026-04-17 21:47 39.45043 -121.03527 11904 ft 311 kts 227°
2026-04-17 21:47 39.43508 -121.05513 11963 ft 313 kts 226°
2026-04-17 21:48 39.41964 -121.07511 12020 ft 315 kts 227°
2026-04-17 21:48 39.40415 -121.09514 12016 ft 314 kts 227°
2026-04-17 21:48 39.38845 -121.11543 11189 ft 319 kts 227°
2026-04-17 21:48 39.37309 -121.13524 10459 ft 307 kts 226°
2026-04-17 21:49 39.35824 -121.15442 9685 ft 298 kts 226°
2026-04-17 21:49 39.34375 -121.17310 8889 ft 289 kts 225°
2026-04-17 21:49 39.32967 -121.19124 8165 ft 282 kts 225°
2026-04-17 21:49 39.31589 -121.20900 7427 ft 276 kts 225°
2026-04-17 21:50 39.30243 -121.22635 6720 ft 272 kts 225°
2026-04-17 21:50 39.28910 -121.24348 6138 ft 267 kts 225°
2026-04-17 21:50 39.27587 -121.26047 6025 ft 270 kts 222°
2026-04-17 21:50 39.26252 -121.27761 6002 ft 271 kts 222°
2026-04-17 21:51 39.24903 -121.29493 5416 ft 275 kts 222°
2026-04-17 21:51 39.23562 -121.31219 4653 ft 270 kts 223°
2026-04-17 21:51 39.22244 -121.32909 3994 ft 264 kts 224°
2026-04-17 21:51 39.20751 -121.34193 3587 ft 257 kts 203°
2026-04-17 21:52 39.19110 -121.34963 3102 ft 246 kts 201°
2026-04-17 21:52 39.17530 -121.35668 2707 ft 234 kts 201°
2026-04-17 21:52 39.16034 -121.36295 2333 ft 225 kts 200°
2026-04-17 21:52 39.14562 -121.36755 2083 ft 210 kts 195°
2026-04-17 21:53 39.13186 -121.37145 1889 ft 195 kts 196°
2026-04-17 21:53 39.11926 -121.37538 1742 ft 176 kts 197°
2026-04-17 21:53 39.10852 -121.38004 1577 ft 149 kts 215°
2026-04-17 21:53 39.10231 -121.38920 1259 ft 131 kts 254°
2026-04-17 21:54 39.10110 -121.39992 1156 ft 117 kts 265°
2026-04-17 21:54 39.10055 -121.41081 993 ft 124 kts 276°
2026-04-17 21:54 39.10450 -121.42043 743 ft 127 kts 316°
2026-04-17 21:54 39.11215 -121.42597 429 ft 128 kts 339°
2026-04-17 21:55 39.12044 -121.42974 160 ft 122 kts 341°
2026-04-17 21:55 39.12792 -121.43302 109 ft 97 kts 340°
2026-04-17 21:55 39.13149 -121.43441 112 ft 21 kts
2026-04-17 21:55 39.13253 -121.43355 115 ft 16 kts 71°
2026-04-17 21:56 39.13286 -121.43233 115 ft 12 kts 70°
2026-04-17 21:56 39.13309 -121.43148 121 ft 9 kts 71°
2026-04-17 21:56 39.13333 -121.43078 122 ft 8 kts 50°
2026-04-17 21:56 39.13394 -121.43048 120 ft 11 kts
2026-04-17 21:57 39.13480 -121.43067 121 ft 14 kts 341°
2026-04-17 21:57 39.13581 -121.43111 122 ft 16 kts 341°
2026-04-17 21:57 39.13693 -121.43160 122 ft 18 kts 342°
2026-04-17 21:57 39.13816 -121.43212 120 ft 19 kts 341°
2026-04-17 21:58 39.13945 -121.43268 121 ft 20 kts 341°
2026-04-17 21:58 39.14078 -121.43326 122 ft 20 kts 341°
2026-04-17 21:58 39.14214 -121.43384 122 ft 21 kts 342°
2026-04-17 21:58 39.14350 -121.43443 120 ft 21 kts 341°
2026-04-17 21:59 39.14476 -121.43498 120 ft 15 kts 341°
2026-04-17 21:59 39.14562 -121.43535 121 ft 13 kts 341°
2026-04-17 21:59 39.14627 -121.43493 121 ft 12 kts 71°
2026-04-17 21:59 39.14655 -121.43385 120 ft 13 kts 71°
2026-04-17 22:00 39.14658 -121.43376 124 ft 13 kts 71°
2026-04-17 22:00 39.14697 -121.43279 122 ft 12 kts 27°
2026-04-17 22:00 39.14779 -121.43307 123 ft 12 kts 326°
2026-04-17 22:00 39.14785 -121.43347 123 ft 0 kts 248°
2026-04-17 22:03 39.14781 -121.43362 120 ft 0 kts 249°